星链-32366 (STARLINK-32366)

导读

STARLINK-32366是美国太空探索技术公司(SpaceX)于2024年10月15日发射的星链(Starlink)低轨互联网卫星,隶属于美国“星链”星座组网项目。星链计划旨在构建全球卫星互联网通信系统,该卫星入轨后将为全球偏远地区、海洋、空中等场景提供高速宽带网络服务,推动全球互联网覆盖进一步完善。

基本信息
目录编号:
61551
目录名称:
STARLINK-32366
国际标识:
2024-184V
轨道中心:
EARTH
卫星名称:
星链-32366
卫星全名:
星链-32366 (STARLINK-32366)
卫星状态:
在轨 (已飞行610 天)
发射日期:
2024-10-15 UTC
国别 :
美国 (US)
星等 :
--
轨道信息
数据来源 国际轨道数据
星历时间: 2026-06-17T22:27:54+0800
8小时前
查看轨道信息
半长轴: 6840.854km
偏心率: 0.0000966
轨道倾角: 53.161°
近地点辐角 68.340°
升交点赤经 269.186°
平近点角 291.770°
近地点: 462.056km
远地点: 463.378km
周期: 93.848分钟
每日圈数: 15.343955
详细信息
固有亮度:
5
最大亮度:
2.5
卫星平台:
Starlink V1.0
覆盖范围:
全球
运营商:
太空探索技术公司
运营商所在国:
美国
制造商(研发单位):
太空探索技术公司
制造商所在国:
美国
使用方式:
暂无
卫星简介
Starlink 计划是 SpaceX 推出的全球卫星互联网项目,通过发射低轨道卫星,为全球尤其是偏远地区提供高速、低延迟的互联网服务。自 2019 年起,Starlink 已部署数千颗卫星,旨在缩小全球数字鸿沟,推动互联网普及。该项目还为军事、航空等行业提供通信支持,带来广泛经济效益。
2D轨道图
3D轨道图
轨道高度分析图
轨道倾角分析图
轨道综合分析图
查看轨道综合分析图